Вернуться в каталог

STARLINK-3078

АктивенСвязьVLEO
NORAD 49134·PAYLOAD·🇺🇸 United States

Запущен Sep 14, 2021 с Vandenberg Space Force Base

Loading…

Ближайшие Пролёты (ближайшие 24 часа)

TLE

СвежийSource: CelesTrak SupGP

Эпоха: Sep 14, 2026, 13:45 UTC

1 49134C 21082E   26257.57340278  .00040985  00000+0  34354-2 0  2575
2 49134  70.0015 178.2153 0003056 266.9040  46.3505 14.98301613    14

Отслеживайте STARLINK-3078 в реальном времени с AllMySat

Download on the App Store